Flag for United Kingdom Weather past 2 weeks in Weymouth, England, United Kingdom

Now
58 °F

Cool.


Feels Like: 57 °F
Forecast: 54 / 70 °F
Wind: 7 mph from West

Location: Isle Of Portland

Current Time: Aug 1, 2015 at 1:29:34 AM

Latest Report: Aug 1, 2015 at 12:00 AM


Visibility: 31 mi

Pressure: 30.03 "Hg

Humidity: 79%

Dew point: 52 °F

Location of WeymouthLocation

Historic Weather in Weymouth — Graph

°F

Weymouth temperature yesterday

Maximum temperature yesterday: 64 °F (at 5:00 PM)
Minimum temperature yesterday: 52 °F (at 6:00 AM)
Average temperature yesterday: 59 °F

Past Weeks' High & Low Weather Summary

 TemperatureHumidityPressure
High66 °F (Jul 19, 2:00 PM)100% (Jul 17, 12:00 AM)30.16 "Hg (Jul 17, 12:00 AM)
Low52 °F (Jul 31, 6:00 AM)53% (Jul 30, 4:00 PM)29.47 "Hg (Jul 26, 7:00 PM)
Average60 °F82%29.91 "Hg
* Reported Midnight between Jul 16 and Jul 17 — Midnight between Jul 31 and Aug 1, Weymouth, Weather by CustomWeather, © 2015

Note: Actual official high and low records may vary slightly from our data, if they occured in-between our weather recording intervals... More about our weather records

Advertising

Weymouth weather history for previous 24 hours

 ConditionsComfort  
Time TempWeatherWind HumidityBarometerVisibility
12:00 AM
Sat, Aug 1
58 °FCool.7 mph79%30.03 "Hg31 mi
11:00 PM
Fri, Jul 31
59 °FCool.10 mph74%30.03 "Hg31 mi
10:00 PM58 °FCool.8 mph76%30.03 "Hg28 mi
9:00 PM58 °FCool.6 mph77%30.02 "Hg31 mi
8:00 PM60 °FCool.7 mph68%30.02 "Hg31 mi
7:00 PM62 °FCool.5 mph61%30.02 "Hg28 mi
6:00 PM63 °FMild.5 mph58%30.03 "Hg31 mi
5:00 PM64 °FMild.7 mph60%30.05 "Hg28 mi
4:00 PM63 °FMild.7 mph60%30.06 "Hg28 mi
3:00 PM63 °FMild.6 mph66%30.07 "Hg14 mi
2:00 PM62 °FMild.5 mph68%30.08 "Hg28 mi
1:00 PM63 °FMild.5 mph66%30.09 "Hg19 mi
12:00 PM62 °FCool.3 mph70%30.09 "Hg25 mi
11:00 AM63 °FMild.5 mph65%30.10 "Hg22 mi
10:00 AM63 °FMild.5 mph65%30.11 "Hg28 mi
9:00 AM60 °FCool.6 mph64%30.11 "Hg22 mi
8:00 AM59 °FCool.8 mph69%30.11 "Hg28 mi
7:00 AM56 °FCool.9 mph72%30.11 "Hg31 mi
6:00 AM52 °FCool.10 mph80%30.11 "Hg31 mi
5:00 AM52 °FCool.10 mph76%30.12 "Hg31 mi
3:00 AM55 °FCool.12 mph68%30.14 "Hg31 mi
2:00 AM54 °FCool.10 mph76%30.15 "Hg31 mi
1:00 AM55 °FCool.12 mph74%30.15 "Hg31 mi
Weather by CustomWeather, © 2015

See weather overviewHow to use our weather pages